Time,TemperatureF,DewpointF,PressureIn,WindDirection,WindDirectionDegrees,WindSpeedMPH,WindSpeedGustMPH,Humidity,HourlyPrecipIn,Conditions,Clouds,dailyrainin,SoftwareType,DateUTC
2013-02-15 21:25:00,43.7,27.7,29.96,WSW,248,0.0,0.0,53,0.00,,,0.00,WUHU216HW,2013-02-16 02:25:00,
2013-02-15 21:30:00,43.6,27.6,29.96,WSW,248,0.0,0.0,53,0.00,,,0.00,WUHU216HW,2013-02-16 02:30:00,
2013-02-15 21:35:00,43.4,27.4,29.97,South,180,0.0,2.2,53,0.00,,,0.00,WUHU216HW,2013-02-16 02:35:00,
2013-02-15 21:40:00,43.2,27.2,29.97,SW,225,2.2,2.2,53,0.00,,,0.00,WUHU216HW,2013-02-16 02:40:00,
2013-02-15 21:45:00,43.2,28.1,29.97,WSW,248,1.4,2.2,55,0.00,,,0.00,WUHU216HW,2013-02-16 02:45:00,
2013-02-15 21:50:00,42.1,27.9,29.97,WSW,248,0.0,1.4,57,0.00,,,0.00,WUHU216HW,2013-02-16 02:50:00,
2013-02-15 21:55:00,41.6,26.6,29.97,SW,225,0.8,0.8,55,0.00,,,0.00,WUHU216HW,2013-02-16 02:55:00,
2013-02-15 22:00:00,41.6,26.6,29.97,SW,225,0.0,0.8,55,0.00,,,0.00,WUHU216HW,2013-02-16 03:00:00,
2013-02-15 22:05:00,41.4,26.4,29.96,East,90,0.0,0.0,55,0.00,,,0.00,WUHU216HW,2013-02-16 03:05:00,
2013-02-15 22:10:00,41.4,28.2,29.97,East,90,0.0,0.0,59,0.00,,,0.00,WUHU216HW,2013-02-16 03:10:00,
2013-02-15 22:15:00,40.7,27.9,29.96,East,90,0.0,0.0,60,0.00,,,0.00,WUHU216HW,2013-02-16 03:15:00,
2013-02-15 22:21:00,40.1,26.9,29.97,East,90,0.0,0.0,59,0.00,,,0.00,WUHU216HW,2013-02-16 03:21:00,
2013-02-15 22:26:00,40.0,26.7,29.96,East,90,0.0,0.8,59,0.00,,,0.00,WUHU216HW,2013-02-16 03:26:00,
2013-02-15 22:31:00,40.0,27.2,29.96,West,270,0.8,1.8,60,0.00,,,0.00,WUHU216HW,2013-02-16 03:31:00,
2013-02-15 22:35:00,39.6,27.5,29.96,West,270,0.4,1.8,62,0.00,,,0.00,WUHU216HW,2013-02-16 03:35:00,
2013-02-15 22:41:00,39.2,26.8,29.96,West,270,0.0,0.8,61,0.00,,,0.00,WUHU216HW,2013-02-16 03:41:00,
2013-02-15 22:46:00,39.2,26.8,29.96,West,270,0.0,0.0,61,0.00,,,0.00,WUHU216HW,2013-02-16 03:46:00,
2013-02-15 22:51:00,39.2,26.5,29.96,West,270,0.0,0.0,60,0.00,,,0.00,WUHU216HW,2013-02-16 03:51:00,
2013-02-15 22:55:00,39.4,27.8,29.96,West,270,0.0,0.0,63,0.00,,,0.00,WUHU216HW,2013-02-16 03:55:00,
2013-02-15 23:01:00,39.1,27.5,29.96,West,270,0.0,0.0,63,0.00,,,0.00,WUHU216HW,2013-02-16 04:01:00,
2013-02-15 23:06:00,38.5,26.9,29.96,West,270,0.8,0.8,63,0.00,,,0.00,WUHU216HW,2013-02-16 04:06:00,
2013-02-15 23:11:00,38.0,28.0,29.97,WNW,293,2.2,8.0,67,0.00,,,0.00,WUHU216HW,2013-02-16 04:11:00,
2013-02-15 23:16:00,38.2,27.4,29.97,West,270,1.4,8.0,65,0.00,,,0.00,WUHU216HW,2013-02-16 04:16:00,
2013-02-15 23:21:00,39.2,28.0,29.97,WNW,293,5.4,7.2,64,0.00,,,0.00,WUHU216HW,2013-02-16 04:21:00,
2013-02-15 23:26:00,40.0,28.4,29.97,NW,315,5.0,7.2,63,0.00,,,0.00,WUHU216HW,2013-02-16 04:26:00,
2013-02-15 23:31:00,41.8,29.3,29.97,WNW,293,4.4,6.8,61,0.00,,,0.00,WUHU216HW,2013-02-16 04:31:00,
2013-02-15 23:36:00,43.0,29.6,29.97,NNW,338,5.4,7.6,59,0.00,,,0.00,WUHU216HW,2013-02-16 04:36:00,
2013-02-15 23:41:00,43.6,30.6,29.97,North,0,3.6,7.6,60,0.00,,,0.00,WUHU216HW,2013-02-16 04:41:00,
2013-02-15 23:46:00,43.2,31.1,29.97,NNW,338,8.6,8.6,62,0.00,,,0.00,WUHU216HW,2013-02-16 04:46:00,
2013-02-15 23:50:00,44.1,31.5,29.97,North,0,4.0,8.6,61,0.00,,,0.00,WUHU216HW,2013-02-16 04:50:00,
2013-02-15 23:55:00,44.5,31.5,29.97,NW,315,6.8,8.0,60,0.00,,,0.00,WUHU216HW,2013-02-16 04:55:00,